TimeEDT,TemperatureF,Dew PointF,Humidity,Sea Level PressureIn,VisibilityMPH,Wind Direction,Wind SpeedMPH,Gust SpeedMPH,PrecipitationIn,Events,Conditions,WindDirDegrees,DateUTC
12:52 AM,55.0,52.0,89,29.55,10.0,NNE,17.3,27.6,0.02,Rain,Light Rain,30,2013-06-14 04:52:00
1:52 AM,55.0,53.1,93,29.57,10.0,NNE,16.1,25.3,0.07,Rain,Rain,20,2013-06-14 05:52:00
2:26 AM,55.4,53.6,94,29.58,10.0,North,12.7,-,0.07,Rain,Rain,360,2013-06-14 06:26:00
2:49 AM,53.6,51.8,94,29.60,10.0,North,13.8,-,0.11,Rain,Light Rain,10,2013-06-14 06:49:00
2:52 AM,54.0,52.0,93,29.60,10.0,North,12.7,19.6,0.11,Rain,Light Rain,10,2013-06-14 06:52:00
3:04 AM,53.6,51.8,94,29.59,-9999.0,North,13.8,-,0.01,Rain,Light Rain,10,2013-06-14 07:04:00
3:52 AM,53.1,51.1,93,29.60,-9999.0,North,13.8,21.9,0.11,Rain,Rain,360,2013-06-14 07:52:00
4:52 AM,53.1,51.1,93,29.61,-9999.0,North,18.4,25.3,0.04,Rain,Rain,10,2013-06-14 08:52:00
5:52 AM,54.0,51.1,90,29.62,10.0,NNE,17.3,31.1,0.05,Rain,Light Rain,20,2013-06-14 09:52:00
6:52 AM,55.0,51.1,86,29.66,10.0,North,12.7,21.9,0.00,,Overcast,360,2013-06-14 10:52:00
7:52 AM,55.9,52.0,87,29.68,10.0,North,13.8,-,N/A,,Overcast,360,2013-06-14 11:52:00
8:52 AM,57.9,52.0,81,29.70,10.0,North,12.7,-,N/A,,Overcast,10,2013-06-14 12:52:00
9:12 AM,59.0,51.8,77,29.70,10.0,North,11.5,-,N/A,,Overcast,10,2013-06-14 13:12:00
9:52 AM,60.1,52.0,75,29.73,10.0,NNE,11.5,-,N/A,,Overcast,20,2013-06-14 13:52:00
10:09 AM,60.8,51.8,72,29.74,10.0,NNE,9.2,19.6,N/A,,Overcast,20,2013-06-14 14:09:00
10:52 AM,61.0,51.1,70,29.76,10.0,NNE,9.2,-,N/A,,Overcast,20,2013-06-14 14:52:00
11:52 AM,63.0,50.0,63,29.78,10.0,North,11.5,-,N/A,,Mostly Cloudy,360,2013-06-14 15:52:00
12:52 PM,63.0,48.9,60,29.78,10.0,NNE,10.4,-,N/A,,Partly Cloudy,20,2013-06-14 16:52:00
1:52 PM,66.0,52.0,60,29.78,10.0,Calm,Calm,-,N/A,,Clear,0,2013-06-14 17:52:00
2:52 PM,66.0,53.1,63,29.77,10.0,South,9.2,-,N/A,,Clear,180,2013-06-14 18:52:00
3:52 PM,64.9,52.0,63,29.78,10.0,South,10.4,-,N/A,,Mostly Cloudy,190,2013-06-14 19:52:00
4:52 PM,66.0,53.1,63,29.78,10.0,SW,8.1,-,N/A,,Clear,220,2013-06-14 20:52:00
5:52 PM,64.9,57.9,78,29.79,10.0,West,6.9,-,0.01,Rain,Light Rain,260,2013-06-14 21:52:00
6:52 PM,68.0,57.0,68,29.79,10.0,WSW,6.9,-,0.00,,Clear,250,2013-06-14 22:52:00
7:52 PM,66.0,57.9,75,29.82,10.0,WSW,8.1,-,N/A,,Mostly Cloudy,250,2013-06-14 23:52:00
8:52 PM,64.0,57.0,78,29.81,10.0,West,5.8,-,0.00,,Scattered Clouds,260,2013-06-15 00:52:00
9:52 PM,62.1,57.0,84,29.83,10.0,West,4.6,-,N/A,,Clear,260,2013-06-15 01:52:00
10:52 PM,62.1,57.0,84,29.83,10.0,West,5.8,-,N/A,,Clear,260,2013-06-15 02:52:00
11:52 PM,64.0,55.9,75,29.84,-9999.0,WNW,9.2,-,N/A,,Clear,300,2013-06-15 03:52:00